Farmingdale, NY

9:12 AM EDT on August 30, 2016 (GMT -0400)
Republic

Weather History for KFRG - September, 2013

Change the Weather History Date:

Tuesday, September 24, 2013

  Actual Average Record
Temperature  
Mean Temperature 60 °F -  
Max Temperature 72 °F 69 °F 81 °F (2006)
Min Temperature 48 °F 54 °F 42 °F (1998)
Degree Days  
Heating Degree Days 6    
Growing Degree Days 10 (Base 50)    
Moisture  
Dew Point 42 °F    
Average Humidity 56    
Maximum Humidity 75    
Minimum Humidity 32    
Precipitation  
Precipitation 0.00 in - - ()
Sea Level Pressure  
Sea Level Pressure 29.97 in    
Wind  
Wind Speed 8 mph (NNW)    
Max Wind Speed 12 mph    
Max Gust Speed 20 mph    
Visibility 10 miles    
Events      
Averages and records for this station are not official NWS values.
T = Trace of Precipitation, MM = Missing Value Source: NWS Daily Summary

Daily Weather History Graph

Daily Weather History Graph

Search for Another Location

Airport or City:

Trip Planner

Search our weather history database for the weather conditions in past years. The results will help you decide how hot, cold, wet, or windy it might be!

Date:

Astronomy

Sep. 24, 2013 Rise Set
Actual Time 6:43 AM EDT 6:47 PM EDT
Civil Twilight 6:16 AM EDT 7:14 PM EDT
Nautical Twilight 5:44 AM EDT 7:46 PM EDT
Astronomical Twilight 5:11 AM EDT 8:18 PM EDT
Moon 10:00 PM EDT (9/24) 11:57 AM EDT (9/24)
Length of Visible Light 12h 58m
Length of Day
12h 03m
Waning Gibbous, 73% of the Moon is Illuminated
Sep 24
Waning Gibbous
Sep 26
Last Quarter
Oct 4
New
Oct 11
First Quarter
Oct 18
Full

Hourly Weather History & Observations

Time (EDT) Temp. Dew Point Humidity Pressure Visibility Wind Dir Wind Speed Gust Speed Precip Events Conditions
12:53 AM 52.0 °F 43.0 °F 71% 30.04 in 10.0 mi North 10.4 mph 18.4 mph N/A   Clear
1:53 AM 51.1 °F 41.0 °F 68% 30.05 in 10.0 mi North 11.5 mph - N/A   Clear
2:53 AM 51.1 °F 39.9 °F 66% 30.04 in 10.0 mi NNE 11.5 mph - N/A   Clear
3:53 AM 50.0 °F 39.9 °F 68% 30.04 in 10.0 mi North 11.5 mph - N/A   Clear
4:53 AM 48.9 °F 39.0 °F 69% 30.04 in 10.0 mi North 11.5 mph - N/A   Clear
5:53 AM 48.9 °F 39.0 °F 69% 30.05 in 10.0 mi North 6.9 mph - N/A   Clear
6:53 AM 48.0 °F 39.9 °F 74% 30.05 in 10.0 mi NW 3.5 mph - N/A   Clear
7:53 AM 48.9 °F 41.0 °F 74% 30.05 in 10.0 mi WNW 3.5 mph - N/A   Clear
8:53 AM 52.0 °F 41.0 °F 66% 30.03 in 10.0 mi WNW 5.8 mph - N/A   Clear
9:53 AM 55.9 °F 43.0 °F 62% 30.02 in 10.0 mi WNW 6.9 mph - N/A   Clear
10:53 AM 59.0 °F 42.1 °F 53% 29.99 in 10.0 mi WSW 9.2 mph - N/A   Clear
11:53 AM 61.0 °F 39.0 °F 44% 29.97 in 10.0 mi NW 9.2 mph - N/A   Clear
12:53 PM 64.9 °F 36.0 °F 34% 29.95 in 10.0 mi NW 8.1 mph - N/A   Clear
1:53 PM 66.0 °F 39.0 °F 37% 29.92 in 10.0 mi WNW 8.1 mph - N/A   Clear
2:53 PM 68.0 °F 39.9 °F 36% 29.90 in 10.0 mi WNW 9.2 mph 17.3 mph N/A   Clear
3:53 PM 70.0 °F 39.0 °F 32% 29.89 in 10.0 mi NNW 8.1 mph 19.6 mph N/A   Clear
4:53 PM 71.1 °F 41.0 °F 34% 29.88 in 10.0 mi NNW 6.9 mph - N/A   Clear
5:53 PM 70.0 °F 42.1 °F 36% 29.88 in 10.0 mi WNW 5.8 mph - N/A   Clear
6:53 PM 66.9 °F 44.1 °F 44% 29.87 in 10.0 mi West 3.5 mph - N/A   Clear
7:53 PM 63.0 °F 45.0 °F 52% 29.88 in 10.0 mi Calm Calm - N/A   Clear
8:53 PM 63.0 °F 45.0 °F 52% 29.89 in 10.0 mi Calm Calm - N/A   Clear
9:53 PM 60.1 °F 46.0 °F 60% 29.92 in 10.0 mi North 5.8 mph - N/A   Clear
10:53 PM 57.0 °F 48.0 °F 72% 29.93 in 10.0 mi NNE 5.8 mph - N/A   Clear
11:53 PM 55.9 °F 48.0 °F 75% 29.94 in 10.0 mi North 4.6 mph - N/A   Clear